Regional Weather Roundup
Issued by NWS

Home | Current Version | Previous Version | Text Only | Print | Product List | Glossary On
Versions: 1 2 3 4 5 6 7 8 9 10 11 12 13 14 15 16 17 18 19 20 21 22 23 24 25 26 27 28 29 30 31 32 33 34 35 36 37 38 39 40 41 42 43 44 45 46 47 48 49 50
000
ASUS43 KOAX 280410
RWRNE

WEATHER ROUNDUP FOR NEBRASKA
NATIONAL WEATHER SERVICE OMAHA NE
1100 PM CDT WED MAY 27 2015

NOTES: SATELLITE DATA IS BEING USED TO AUGMENT CLOUD COVER ABOVE
       12000 FEET.
       "FAIR" INDICATES FEW OR NO CLOUDS BELOW 12,000 FEET WITH NO
       SIGNIFICANT WEATHER AND/OR OBSTRUCTIONS TO VISIBILITY.

  * THESE STATIONS DO NOT REPORT WEATHER SUCH AS RAIN...SNOW OR FOG.

NEZ001>004-019>022-054>056-280500-
NEBRASKA PANHANDLE

CITY           SKY/WX    TMP DP  RH WIND       PRES   REMARKS
SCOTTSBLUFF    PTCLDY    61  56  83 S7        30.04R
ALLIANCE       CLEAR     59  55  87 S17       30.02R
CHADRON        CLEAR     61  55  81 S12       29.97R
KIMBALL          N/A    N/A N/A N/A MISG        N/A
SIDNEY         PTCLDY    57  50  77 SE15      30.06S
$$

NEZ057>060-069>072-079>082-280500-
SOUTHWEST NEBRASKA

CITY           SKY/WX    TMP DP  RH WIND       PRES   REMARKS
NORTH PLATTE   PTCLDY    64  57  78 S12       30.04R
IMPERIAL       PTCLDY    57  53  86 SE12      30.06S
LEXINGTON      CLOUDY    66  60  81 S17G23    30.02R
MCCOOK         CLOUDY    64  59  83 S10G16    30.04S
OGALLALA       PTCLDY    60  56  85 S15G21    30.05R
$$

NEZ005>010-023>029-035>040-094-280500-
NORTH CENTRAL NEBRASKA

CITY           SKY/WX    TMP DP  RH WIND       PRES   REMARKS
VALENTINE      CLOUDY    63  53  70 SW12      29.99R
AINSWORTH      CLOUDY    65  55  70 S8        30.03R
BROKEN BOW     CLOUDY    64  58  80 S6        30.05R
O`NEILL        MOCLDY    63  55  74 SE5       30.04S
ORD            CLOUDY    67  55  65 S10       30.03R
THEDFORD       CLOUDY    60  56  88 SE5       30.04R
$$

NEZ041-046>049-061>064-073>077-083>087-280500-
SOUTH CENTRAL NEBRASKA

CITY           SKY/WX    TMP DP  RH WIND       PRES   REMARKS
GRAND ISLAND   CLOUDY    68  57  68 S9        30.07R
AURORA         CLOUDY    67  55  64 S7        30.07S
HASTINGS       CLOUDY    68  58  70 S8        30.07S
HEBRON         CLOUDY    66  57  74 CALM      30.07S
HOLDREGE       CLOUDY    65  59  79 S14       30.04F
KEARNEY *      CLOUDY    66  57  72 S12       30.05F
YORK           CLOUDY    68  50  52 S10       30.08R
$$

NEZ011>018-030>034-042>045-280500-
NORTHEAST NEBRASKA

CITY           SKY/WX    TMP DP  RH WIND       PRES   REMARKS
NORFOLK        CLOUDY    70  47  43 S9        30.05R
ALBION         CLOUDY    67  50  53 SE7       30.05S
BLAIR          MOCLDY    68  49  50 S6        30.08R
COLUMBUS *     CLOUDY    70  46  43 S8        30.08R
FREMONT        MOCLDY    73  48  41 S8        30.07R
TEKAMAH        MOCLDY    65  55  70 SW5       30.06R
WAYNE          MOCLDY    64  52  66 S8        30.06R
$$

NEZ050>053-065>068-078-088>093-280500-
SOUTHEAST NEBRASKA

CITY           SKY/WX    TMP DP  RH WIND       PRES   REMARKS
LINCOLN        CLOUDY    65  53  65 S8        30.07S
OMAHA EPPLEY   CLOUDY    67  55  65 SE7       30.07R
BEATRICE       CLOUDY    67  54  63 SE3       30.08R
NEBRASKA CITY  MOCLDY    65  49  56 S5        30.09R
PLATTSMOUTH    MOCLDY    66  52  60 S7        30.08S
$$

NEZ044-045-051>053-067-280500-
OMAHA AREA

CITY           SKY/WX    TMP DP  RH WIND       PRES   REMARKS
OMAHA EPPLEY   CLOUDY    67  55  65 SE7       30.07R
BLAIR          MOCLDY    68  49  50 S6        30.08R
FREMONT        MOCLDY    73  48  41 S8        30.07R
MILLARD        MOCLDY    67  52  59 CALM      30.07R
PLATTSMOUTH    MOCLDY    66  52  60 S7        30.08S
WAHOO          FAIR      66  53  62 S7        30.07S
$$



USA.gov is the U.S. government's official web portal to all federal, state and local government web resources and services.